Location: Sternwarte ZA, Rosenfeld-Brittheim
(48.2889°N, 8.6789°E)
Time: 07:27:00
(UTC+02:00)

ISS - Pass Details

Date: 26 May 2018
Orbit: 402 x 407 km, 51.6° (Epoch: 24 May)

Event Time Altitude Azimuth Distance (km) Brightness Sun altitude
Rises 01:11:46 0° 290° (WNW) 2,322 0.3 -20.6°
Reaches altitude 10° 01:13:52 10° 293° (WNW) 1,460 -0.7 -20.6°
Maximum altitude 01:17:07 69° 17° (NNE) 435 -3.6 -20.6°
Enters shadow 01:17:14 68° 34° (NNE) 437 -3.6 -20.6°
